Seldovia, AK

10:30 PM AKDT on September 19, 2017 (GMT -0800)
Seldovia

Weather History for PASO - March, 2014

Change the Weather History Date:

Monday, March 24, 2014

  Actual Average (PAHO) Record (PAHO)
Temperature  
Mean Temperature 27 °F -  
Max Temperature 36 °F 37 °F 51 °F (2015)
Min Temperature 18 °F 25 °F 4 °F (1962)
Degree Days  
Heating Degree Days 38    
Moisture  
Dew Point 21 °F    
Average Humidity 77    
Maximum Humidity 96    
Minimum Humidity 52    
Precipitation  
Precipitation 0.00 in - - ()
Sea Level Pressure  
Sea Level Pressure 30.17 in    
Wind  
Wind Speed 1 mph (NNE)    
Max Wind Speed 8 mph    
Max Gust Speed -    
Visibility 10 miles    
Events      
Averages and records for this station are not official NWS values.
T = Trace of Precipitation, MM = Missing Value Source: NWS Daily Summary

Daily Weather History Graph

Daily Weather History Graph

Search for Another Location

Airport or City:

Trip Planner

Search our weather history database for the weather conditions in past years. The results will help you decide how hot, cold, wet, or windy it might be!

Date:

Astronomy

Mar. 24, 2014 Rise Set
Actual Time 7:55 AM AKDT 8:31 PM AKDT
Civil Twilight 7:14 AM AKDT 9:12 PM AKDT
Nautical Twilight 6:24 AM AKDT 10:02 PM AKDT
Astronomical Twilight 5:29 AM AKDT 10:58 PM AKDT
Moon 4:56 AM AKDT (3/24) 12:48 PM AKDT (3/24)
Length of Visible Light 13h 57m
Length of Day
12h 35m
Last Quarter, 41% of the Moon is Illuminated
Mar 24
Last Quarter
Mar 30
New
Apr 7
First Quarter
Apr 14
Full
Apr 21
Last Quarter

Hourly Weather History & Observations

Time (AKDT) Temp. Windchill Dew Point Humidity Pressure Visibility Wind Dir Wind Speed Gust Speed Precip Events Conditions
12:53 AM 25.0 °F - 21.0 °F 85% 30.34 in 10.0 mi Calm Calm - N/A   Clear
1:53 AM 23.0 °F - 19.9 °F 88% 30.33 in 10.0 mi Calm Calm - N/A   Clear
2:53 AM 21.9 °F - 19.0 °F 89% 30.32 in 10.0 mi Calm Calm - N/A   Clear
3:53 AM 21.0 °F - 19.0 °F 92% 30.31 in 10.0 mi Calm Calm - N/A   Clear
4:53 AM 21.0 °F - 17.1 °F 85% 30.30 in 10.0 mi Calm Calm - N/A   Clear
5:53 AM 19.0 °F - 17.1 °F 92% 30.29 in 10.0 mi Calm Calm - N/A   Clear
6:53 AM 19.0 °F - 17.1 °F 92% 30.28 in 10.0 mi Calm Calm - N/A   Clear
7:53 AM 19.9 °F - 15.1 °F 81% 30.27 in 10.0 mi Calm Calm - N/A   Clear
8:53 AM 18.0 °F - 17.1 °F 96% 30.25 in 10.0 mi Calm Calm - N/A   Clear
9:53 AM 21.0 °F - 19.0 °F 92% 30.24 in 10.0 mi Calm Calm - N/A   Clear
10:53 AM 27.0 °F - 23.0 °F 85% 30.22 in 10.0 mi Calm Calm - N/A   Clear
11:53 AM 35.1 °F - 23.0 °F 61% 30.21 in 10.0 mi Calm Calm - N/A   Clear
12:53 PM 36.0 °F 32.1 °F 25.0 °F 64% 30.20 in 10.0 mi NNE 4.6 mph - N/A   Clear
1:53 PM 36.0 °F 29.6 °F 21.9 °F 57% 30.17 in 10.0 mi NNE 8.1 mph - N/A   Clear
2:53 PM 35.1 °F 31.0 °F 23.0 °F 61% 30.14 in 10.0 mi Variable 4.6 mph - N/A   Clear
3:53 PM 36.0 °F 31.1 °F 24.1 °F 62% 30.11 in 10.0 mi Variable 5.8 mph - N/A   Clear
4:53 PM 35.1 °F - 23.0 °F 61% 30.09 in 10.0 mi Calm Calm - N/A   Clear
5:53 PM 35.1 °F - 19.0 °F 52% 30.06 in 10.0 mi Calm Calm - N/A   Clear
6:53 PM 33.1 °F - 21.0 °F 61% 30.03 in 10.0 mi Calm Calm - N/A   Clear
7:53 PM 30.9 °F - 23.0 °F 72% 30.00 in 10.0 mi Calm Calm - N/A   Clear
8:53 PM 28.9 °F - 21.9 °F 75% 29.99 in 10.0 mi Calm Calm - N/A   Clear
9:53 PM 27.0 °F - 21.9 °F 81% 29.97 in 10.0 mi Calm Calm - N/A   Clear
10:53 PM 26.1 °F - 21.0 °F 81% 29.96 in 10.0 mi Calm Calm - N/A   Clear
11:53 PM 26.1 °F - 21.0 °F 81% 29.95 in 10.0 mi Calm Calm - N/A   Clear